Location: Zagreb
(45.8000°N, 16.0000°E)
Time: 15:57:39
(UTC+01:00)

CAS-4B - Pass Details

Date: 31 October 2020
Orbit: 529 x 544 km, 43.0° (Epoch: 28 November)

Event Time Altitude Azimuth Distance (km) Brightness Sun altitude
Exits shadow 05:06:24 27° 243° (WSW) 1,045 ? -15.9°
Maximum altitude 05:07:54 37° 199° (SSW) 832 ? -15.6°
Drops below altitude 10° 05:11:39 10° 131° (SE) 1,769 ? -15.0°
Sets 05:13:59 0° 123° (ESE) 2,655 ? -14.6°
